Location: Eurasberg
(48.3353°N, 11.0839°E)
Time: 14:38:50
(UTC+00:00)

Okean 3 - Pass Details

Date: 18 January 2026
Orbit: 542 x 563 km, 82.5° (Epoch: 18 February)

Event Time Altitude Azimuth Distance (km) Brightness Sun altitude
Exits shadow 05:26:28 23° 254° (WSW) 1,171 4.5 -15.1°
Drops below altitude 10° 05:29:01 10° 216° (SW) 1,804 5.7 -14.7°
Sets 05:31:25 0° 203° (SSW) 2,690 6.8 -14.3°
